Location: Poughquag
(41.6090°N, 73.6820°W)
Time: 18:17:47
(UTC-05:00)

UNISAT 6 - Visible Passes

Search period start: 28 November 2023 00:00
Search period end: 08 December 2023 00:00
Orbit: 598 x 673 km, 97.7° (Epoch: 28 November)

Date Brightness Start Highest point End Pass type
(mag) Time Alt. Az. Time Alt. Az. Time Alt. Az.
28 Nov ? 17:35:47 10° N 17:40:01 41° WNW 17:44:09 10° SW visible
29 Nov ? 17:58:20 10° NNW 18:01:59 25° WNW 18:05:33 10° WSW visible
30 Nov ? 18:21:14 10° NNW 18:23:51 15° WNW 18:26:25 10° W visible
01 Dec ? 17:05:30 10° NNE 17:10:00 86° WNW 17:14:23 10° SSW visible
02 Dec ? 17:27:43 10° N 17:32:02 49° WNW 17:36:14 10° SSW visible
03 Dec ? 17:50:09 10° N 17:53:58 29° WNW 17:57:44 10° SW visible
04 Dec ? 18:12:52 10° NNW 18:15:50 18° WNW 18:18:45 10° WSW visible
05 Dec ? 16:57:25 10° NNE 17:01:52 79° ESE 17:06:11 10° S visible
05 Dec ? 18:36:33 10° NW 18:37:36 11° WNW 18:38:39 10° WNW visible
06 Dec ? 17:19:31 10° N 17:23:53 59° WNW 17:28:06 10° SSW visible
07 Dec ? 17:41:49 10° N 17:45:48 34° WNW 17:49:42 10° SW visible
